[[{"header":{"parameterUnit":"m.s-1","parameterCategory":1,"la1":30.2991,"la2":30.254,"lo1":-89.0895,"lo2":-89.0444,"dy":0.0017,"dx":0.0017,"nx":28,"ny":28,"refTime":"2025-12-18T09:00:00:Z","depth":0,"parameterNumber":2,"parameterNumberName":"U-component_of_WINDS"},"data":[0,0,0,0,0,0,0,0,0,0,0,0,0,0,0,0,0,0,0,0,0,0,0,0,0,0,0,0,0,0,0,0,0,0,0,0,0,0,0,0,0,0,0,0,0,0,0,0,0,0,0,0,0,0,0,0,0,0,-0.4241,-0.4241,0,-0.4217,-0.4217,-0.4217,-0.4252,-0.4254,-0.4255,-0.4256,-0.4227,-0.4225,-0.4223,0,0,0,0,0,0,0,0,0,0,0,0,0,-0.4313,-0.4312,-0.4241,-0.4241,-0.4241,-0.4217,-0.4217,-0.4217,-0.4252,-0.4254,-0.4255,-0.4257,-0.4228,-0.4226,-0.4223,0,0,0,0,0,0,0,0,0,0,0,0,0,-0.4285,-0.4311,-0.4242,-0.4256,-0.4257,-0.4218,-0.4217,-0.4217,-0.4252,-0.4254,-0.4256,-0.4257,-0.4229,-0.4226,-0.4223,-0.4167,0,0,-0.4214,-0.4213,0,0,0,0,0,0,0,0,-0.4286,-0.4282,-0.4254,-0.4255,-0.4256,-0.424,-0.4232,-0.42,-0.4251,-0.4254,-0.4256,-0.4258,-0.423,-0.4227,-0.4218,-0.4166,-0.4165,-0.4214,-0.4212,-0.4211,-0.421,0,0,0,0,0,0,0,-0.4288,-0.4283,-0.4232,-0.4254,-0.4255,-0.4262,-0.426,-0.4226,-0.4231,-0.4254,-0.4256,-0.4253,-0.423,-0.4221,-0.4218,-0.4164,-0.4214,-0.4211,-0.421,-0.4208,-0.4062,-0.406,0,0,0,0,0,0,-0.4289,-0.4285,-0.4233,-0.4231,-0.4276,-0.4259,-0.4257,-0.4243,-0.4232,-0.4232,-0.4251,-0.4255,-0.4225,-0.4221,-0.4217,-0.4148,-0.4211,-0.4208,-0.4206,-0.4064,-0.4062,-0.4059,0,0,0,0,0,0,-0.4291,-0.4284,-0.4234,-0.4259,-0.4253,-0.4256,-0.424,-0.4242,-0.4232,-0.423,-0.4231,-0.4241,-0.4226,-0.4221,-0.4179,-0.4148,-0.4207,-0.4204,-0.4067,-0.4063,-0.406,-0.4012,0,0,0,0,0,0,-0.4293,-0.4285,-0.4265,-0.4258,-0.4251,-0.4197,-0.4238,-0.424,-0.4227,-0.4231,-0.422,-0.422,-0.4227,-0.4183,-0.4176,-0.4145,-0.4202,-0.4069,-0.4065,-0.4061,-0.4017,-0.4008,-0.4,0,0,0,0,0,-0.4295,-0.4252,-0.4263,-0.4257,-0.4227,-0.4196,-0.4192,-0.4202,-0.4225,-0.4203,-0.4202,-0.4221,-0.4153,-0.4178,-0.4171,-0.4138,-0.4071,-0.4066,-0.4062,-0.402,-0.401,-0.4,0,0,0,0,0,0,-0.4254,-0.4251,-0.4264,-0.4218,-0.4207,-0.4202,-0.4176,-0.4191,-0.4172,-0.4176,-0.4188,-0.4186,-0.414,-0.4136,-0.4164,-0.4082,-0.4116,-0.4109,-0.4087,-0.4077,-0.4069,-0.4069,-0.4199,0,0,0,0,0,-0.424,-0.4216,-0.4215,-0.4174,-0.4168,-0.4172,-0.4159,-0.4168,-0.4157,-0.4152,-0.4147,-0.4134,-0.411,-0.4093,-0.4071,-0.4017,-0.4013,-0.3991,-0.3983,-0.3976,-0.3969,-0.3937,-0.3926,-0.4043,-0.4043,-0.4044,0,0,-0.4209,-0.4205,-0.4189,-0.4165,-0.4158,-0.4131,-0.4168,-0.4139,-0.4119,-0.4147,-0.4107,-0.4103,-0.4089,-0.404,-0.4018,-0.4034,-0.3936,-0.397,-0.3964,-0.3961,-0.3931,-0.392,-0.391,-0.404,-0.4041,-0.4041,0,0,-0.414,-0.4136,-0.41,-0.4092,-0.408,-0.4083,-0.4075,-0.4067,-0.4066,-0.4026,-0.4046,-0.4021,-0.398,-0.3968,-0.3957,-0.3882,-0.3897,-0.3874,-0.383,-0.3799,-0.379,-0.3781,-0.3751,-0.3741,-0.3868,-0.3868,-0.3868,0,-0.4103,-0.4065,-0.4079,-0.4048,-0.4036,-0.4061,-0.4024,-0.4015,-0.3996,-0.3985,-0.4005,-0.3952,-0.3945,-0.3892,-0.3873,-0.3864,-0.3852,-0.3874,-0.379,-0.3782,-0.3775,-0.3746,-0.3735,-0.3865,-0.3865,-0.3866,-0.3866,0,-0.4019,-0.3993,-0.3965,-0.3946,-0.3931,-0.3897,-0.3904,-0.3886,-0.3896,-0.3897,-0.3854,-0.3847,-0.3822,-0.381,-0.382,-0.3758,-0.3768,-0.3789,-0.3822,-0.376,-0.3733,-0.3723,-0.3861,-0.3862,-0.3863,-0.3864,0,0,-0.3923,-0.3912,-0.3901,-0.3892,-0.3881,-0.3859,-0.3825,-0.3802,-0.3785,-0.3771,-0.3741,-0.3705,-0.3723,-0.371,-0.3719,-0.3692,-0.3628,-0.3715,-0.3715,-0.3696,-0.3556,-0.3538,-0.3526,-0.364,-0.3638,-0.3636,-0.3556,0,-0.3851,-0.3794,-0.3804,-0.3747,-0.3721,-0.3744,-0.3714,-0.3702,-0.3702,-0.3678,-0.3678,-0.365,-0.3679,-0.367,-0.3645,-0.3642,-0.36,-0.3648,-0.3608,-0.3607,-0.3608,-0.3512,-0.3494,-0.3419,-0.3546,-0.3544,-0.3543,0,-0.376,-0.3743,-0.3683,-0.3674,-0.3663,-0.3636,-0.3614,-0.3592,-0.3579,-0.358,-0.3565,-0.3578,-0.3541,-0.3577,-0.3525,-0.3558,-0.3542,-0.3538,-0.3536,-0.353,-0.3569,-0.3501,-0.3395,-0.3383,-0.3527,-0.3529,-0.353,0,-0.3692,-0.3654,-0.3612,-0.3604,-0.3593,-0.3573,-0.3567,-0.3556,-0.354,-0.3521,-0.351,-0.3487,-0.3473,-0.3454,-0.3459,-0.3485,-0.3405,-0.3442,-0.3402,-0.3402,-0.3382,-0.3382,-0.3269,-0.3377,-0.3377,-0.3377,-0.3378,0,-0.3609,-0.3571,-0.3581,-0.3555,-0.3512,-0.3524,-0.3481,-0.3477,-0.3467,-0.3439,-0.3459,-0.3432,-0.3442,-0.3415,-0.3419,-0.3373,-0.3368,-0.3366,-0.3367,-0.3362,-0.3362,-0.335,-0.3354,-0.3374,-0.3375,-0.3376,-0.3376,0,-0.3525,-0.3531,-0.3486,-0.3479,-0.3476,-0.3444,-0.3438,-0.3412,-0.3413,-0.3378,-0.337,-0.3371,-0.334,-0.3344,-0.331,-0.3312,-0.3255,-0.3264,-0.3259,-0.326,-0.3219,-0.3221,-0.3092,-0.3074,-0.3196,-0.3195,-0.3194,0,-0.3471,-0.3441,-0.3431,-0.3414,-0.3407,-0.338,-0.3364,-0.3375,-0.3357,-0.3339,-0.3314,-0.3286,-0.3263,-0.3212,-0.3208,-0.3182,-0.3188,-0.3144,-0.3184,-0.3179,-0.3183,-0.3183,-0.3179,-0.3135,-0.3134,-0.3133,-0.3132,0,-0.3372,-0.3376,-0.3354,-0.3331,-0.3311,-0.3294,-0.3278,-0.3263,-0.3271,-0.325,-0.3219,-0.3202,-0.3166,-0.3136,-0.311,-0.3103,-0.3117,-0.312,-0.3109,-0.3102,-0.31,-0.3097,-0.3234,-0.3122,-0.3123,-0.3124,-0.3125,-0.3125,-0.3299,-0.3273,-0.3262,-0.3234,-0.3224,-0.3208,-0.3183,-0.3181,-0.3156,-0.3128,-0.3136,-0.31,-0.3085,-0.3052,-0.3041,-0.3012,-0.3027,-0.3012,-0.3007,-0.3003,-0.2996,-0.3107,-0.3007,-0.3008,-0.3008,-0.3008,-0.3008,0,-0.32,-0.3193,-0.3168,-0.3145,-0.3123,-0.3141,-0.3124,-0.3104,-0.3072,-0.3058,-0.3035,-0.2998,-0.2968,-0.2962,-0.2933,-0.2911,-0.2916,-0.2902,-0.2902,-0.29,-0.2986,-0.2997,-0.2898,-0.2898,-0.2898,-0.2898,-0.2898,-0.2898,-0.3145,-0.3101,-0.3103,-0.3053,-0.3047,-0.3012,-0.3,-0.2985,-0.2973,-0.2931,-0.2907,-0.2903,-0.2891,-0.2861,-0.2834,-0.2833,-0.282,-0.2802,-0.2803,-0.2883,-0.2894,-0.2904,-0.2915,-0.28,-0.28,-0.2719,-0.2719,-0.2718]},{"header":{"parameterUnit":"m.s-1","parameterCategory":1,"la1":30.2991,"la2":30.254,"lo1":-89.0895,"lo2":-89.0444,"dy":0.0017,"dx":0.0017,"nx":28,"ny":28,"refTime":"2025-12-18T09:00:00:Z","depth":0,"parameterNumber":3,"parameterNumberName":"V-component_of_WINDS"},"data":[0,0,0,0,0,0,0,0,0,0,0,0,0,0,0,0,0,0,0,0,0,0,0,0,0,0,0,0,0,0,0,0,0,0,0,0,0,0,0,0,0,0,0,0,0,0,0,0,0,0,0,0,0,0,0,0,0,0,3.1744,3.1746,0,3.1886,3.1888,3.1889,3.1904,3.1903,3.1902,3.19,3.2048,3.2053,3.2058,0,0,0,0,0,0,0,0,0,0,0,0,0,3.1489,3.1493,3.1744,3.1746,3.1747,3.1886,3.1888,3.189,3.1905,3.1903,3.1901,3.19,3.2046,3.2052,3.2058,0,0,0,0,0,0,0,0,0,0,0,0,0,3.1612,3.1495,3.1744,3.1772,3.1776,3.1885,3.1888,3.189,3.1905,3.1903,3.1901,3.1899,3.2044,3.2051,3.2059,3.2152,0,0,3.2083,3.2087,0,0,0,0,0,0,0,0,3.1605,3.1621,3.1766,3.177,3.1774,3.1875,3.1852,3.1978,3.1906,3.1856,3.19,3.1898,3.1992,3.2004,3.2036,3.2158,3.2165,3.2084,3.2089,3.2092,3.2095,0,0,0,0,0,0,0,3.1596,3.1615,3.18,3.1768,3.1773,3.1778,3.1793,3.1876,3.1935,3.186,3.1862,3.1878,3.1994,3.2028,3.2039,3.2167,3.2084,3.2091,3.2096,3.2099,3.2376,3.2379,0,0,0,0,0,0,3.1582,3.1608,3.1796,3.1804,3.1683,3.1784,3.1801,3.1845,3.1934,3.1945,3.188,3.1878,3.2016,3.203,3.2044,3.2162,3.2092,3.21,3.2104,3.2374,3.2377,3.238,0,0,0,0,0,0,3.1577,3.1599,3.179,3.1707,3.1731,3.1791,3.184,3.1849,3.1883,3.1949,3.1959,3.1904,3.2014,3.2033,3.2126,3.2167,3.2103,3.211,3.2371,3.2375,3.2378,3.2395,0,0,0,0,0,0,3.1569,3.1597,3.1632,3.1707,3.1736,3.1868,3.1843,3.1853,3.1896,3.1896,3.1974,3.1984,3.2014,3.2114,3.2133,3.2177,3.2117,3.2367,3.2373,3.2377,3.2391,3.2399,3.2406,0,0,0,0,0,3.156,3.163,3.1633,3.1656,3.1781,3.187,3.1887,3.1919,3.1899,3.1936,3.1979,3.1982,3.2158,3.2123,3.2145,3.2192,3.2365,3.2371,3.2377,3.2388,3.2397,3.2405,0,0,0,0,0,0,3.1558,3.1641,3.1645,3.1742,3.1799,3.1873,3.192,3.1927,3.1992,3.1989,3.2026,3.2044,3.2135,3.2172,3.2131,3.2287,3.226,3.2271,3.226,3.227,3.2277,3.2268,3.2123,0,0,0,0,0,3.1569,3.1634,3.1703,3.1781,3.181,3.186,3.19,3.192,3.1981,3.2005,3.2054,3.2114,3.2183,3.2228,3.2295,3.2395,3.2414,3.2438,3.2445,3.2451,3.2461,3.252,3.2533,3.2399,3.2399,3.2399,0,0,3.1592,3.1645,3.1684,3.1782,3.1829,3.1897,3.188,3.1952,3.2004,3.2016,3.2108,3.2145,3.2214,3.2312,3.2357,3.2346,3.2502,3.2458,3.2462,3.247,3.2528,3.254,3.2551,3.2403,3.2403,3.2402,0,0,3.167,3.1715,3.1788,3.1835,3.1905,3.1938,3.1955,3.2029,3.2055,3.2146,3.2158,3.222,3.2337,3.2387,3.2428,3.2526,3.2533,3.2546,3.2586,3.2643,3.2654,3.2664,3.2702,3.2715,3.2555,3.2555,3.2555,0,3.1691,3.1793,3.1824,3.1897,3.1941,3.1954,3.2029,3.2073,3.2163,3.2194,3.2178,3.2328,3.2375,3.2487,3.2511,3.2542,3.2565,3.2539,3.265,3.266,3.2669,3.2707,3.2721,3.2556,3.2556,3.2556,3.2556,0,3.1817,3.1887,3.1937,3.2024,3.2073,3.2146,3.2189,3.2236,3.2251,3.2286,3.238,3.2437,3.2518,3.2545,3.256,3.2659,3.265,3.2641,3.2616,3.2683,3.2719,3.2733,3.2559,3.2558,3.2558,3.2557,0,0,3.19,3.2002,3.202,3.2061,3.214,3.2196,3.227,3.2349,3.239,3.245,3.2516,3.2615,3.2609,3.2655,3.2676,3.2726,3.2804,3.2712,3.2714,3.2731,3.2921,3.293,3.2946,3.2808,3.281,3.2813,3.2917,0,3.199,3.2123,3.2153,3.2268,3.2336,3.235,3.2415,3.2472,3.2506,3.257,3.2607,3.2679,3.2663,3.2691,3.2741,3.2784,3.2844,3.2776,3.2872,3.2875,3.2859,3.2964,3.2974,3.307,3.2931,3.2933,3.2935,0,3.2114,3.2178,3.23,3.2373,3.2402,3.246,3.2536,3.2595,3.266,3.2682,3.2734,3.275,3.283,3.2797,3.291,3.2863,3.2904,3.2931,3.2935,3.2949,3.2912,3.2985,3.3101,3.3117,3.2957,3.2955,3.2953,0,3.2167,3.2284,3.2373,3.2407,3.2492,3.2534,3.2571,3.2634,3.268,3.2746,3.2777,3.285,3.2892,3.295,3.2986,3.2958,3.3097,3.3066,3.312,3.312,3.3152,3.3151,3.328,3.3171,3.3171,3.317,3.317,0,3.2268,3.2343,3.2399,3.2454,3.254,3.2573,3.2657,3.2695,3.2751,3.2815,3.283,3.289,3.2932,3.2999,3.3027,3.3118,3.3136,3.3158,3.3165,3.3159,3.3157,3.3189,3.3185,3.3174,3.3173,3.3173,3.3172,0,3.2344,3.2384,3.2483,3.2556,3.2576,3.2636,3.2699,3.2754,3.2788,3.2869,3.289,3.2945,3.3024,3.3065,3.3163,3.3183,3.3287,3.3288,3.3265,3.3269,3.3323,3.3319,3.3481,3.3506,3.3376,3.3377,3.3378,0,3.2408,3.2466,3.2545,3.2589,3.2628,3.2698,3.2745,3.2781,3.2829,3.2908,3.2955,3.3034,3.3101,3.3227,3.3276,3.3352,3.3358,3.341,3.337,3.3363,3.3364,3.3362,3.337,3.3418,3.3419,3.342,3.3421,0,3.2518,3.2535,3.2602,3.2677,3.2733,3.2793,3.2853,3.2888,3.2933,3.2988,3.3069,3.312,3.3221,3.3301,3.3381,3.3421,3.3431,3.3433,3.345,3.3447,3.3433,3.3446,3.3289,3.343,3.3429,3.3428,3.3428,3.3428,3.2593,3.2647,3.2712,3.2787,3.2835,3.2891,3.2948,3.2989,3.3057,3.3142,3.3158,3.3245,3.331,3.3419,3.3461,3.3531,3.352,3.3544,3.3551,3.3558,3.3563,3.3418,3.3545,3.3544,3.3544,3.3544,3.3544,0,3.2708,3.2751,3.2819,3.2903,3.2962,3.2963,3.3029,3.308,3.3156,3.3215,3.328,3.3375,3.3453,3.3508,3.3588,3.3633,3.364,3.3653,3.3653,3.3663,3.3565,3.3544,3.3647,3.3647,3.3647,3.3647,3.3647,3.3647,3.2776,3.2868,3.2893,3.301,3.3052,3.3137,3.3176,3.3228,3.3276,3.3381,3.3446,3.3481,3.354,3.3624,3.3696,3.3711,3.3741,3.3756,3.3771,3.368,3.3669,3.3659,3.364,3.3761,3.3761,3.3864,3.3865,3.3865]}]]